• In Hungary
  • List of Countries
  • For 7 days
  • Water Temperature
  • Satellite Maps
  • Weather Map
  • News
  • Weather Widgets
  • user-avatar
    Login

    Hourly Weather San Juan de Oriente

    Today, 14 December, Thursday

    Time Temperature Precipitation Wind Pressure Humidity
    00:00 +23°C° 0 mm 5 mps 747 mmHg 66%
    01:00 +23°C° 0 mm 5 mps 747 mmHg 66%
    02:00 +23°C° 0 mm 5 mps 747 mmHg 66%
    03:00 +22°C° 0 mm 4 mps 747 mmHg 65%
    04:00 +22°C° 0 mm 4 mps 747 mmHg 66%
    05:00 +22°C° 0 mm 4 mps 747 mmHg 67%
    06:00 +22°C° 0 mm 4 mps 747 mmHg 67%
    07:00 +23°C° 0 mm 4 mps 747 mmHg 64%
    08:00 +26°C° 0 mm 5 mps 747 mmHg 60%
    09:00 +27°C° 0 mm 5 mps 748 mmHg 57%
    10:00 +28°C° 0 mm 6 mps 747 mmHg 55%
    11:00 +30°C° 0 mm 6 mps 747 mmHg 54%
    12:00 +32°C° 0 mm 6 mps 746 mmHg 52%
    13:00 +32°C° 0 mm 6 mps 746 mmHg 54%
    14:00 +32°C° 0 mm 6 mps 745 mmHg 55%
    15:00 +32°C° 0 mm 6 mps 745 mmHg 56%
    16:00 +29°C° 0 mm 5 mps 745 mmHg 61%
    17:00 +28°C° 0 mm 5 mps 745 mmHg 67%
    18:00 +27°C° 0 mm 4 mps 745 mmHg 72%
    19:00 +27°C° 0 mm 4 mps 746 mmHg 73%
    20:00 +26°C° 0 mm 4 mps 746 mmHg 74%
    21:00 +26°C° 0 mm 4 mps 746 mmHg 75%
    22:00 +26°C° 0 mm 4 mps 746 mmHg 75%
    23:00 +26°C° 0 mm 4 mps 746 mmHg 76%

    Tomorrow, 15 December, Friday

    Time Temperature Precipitation Wind Pressure Humidity
    00:00 +25°C° 0 mm 4 mps 746 mmHg 76%
    01:00 +25°C° 0 mm 4 mps 746 mmHg 77%
    02:00 +25°C° 0 mm 4 mps 746 mmHg 78%
    03:00 +23°C° 0 mm 4 mps 745 mmHg 79%
    04:00 +24°C° 0 mm 3 mps 746 mmHg 80%
    05:00 +24°C° 0 mm 3 mps 746 mmHg 81%
    06:00 +24°C° 0 mm 3 mps 746 mmHg 82%
    07:00 +25°C° 0 mm 4 mps 747 mmHg 76%
    08:00 +27°C° 0 mm 4 mps 747 mmHg 70%
    09:00 +29°C° 0 mm 5 mps 748 mmHg 64%
    10:00 +30°C° 0 mm 5 mps 747 mmHg 61%
    11:00 +32°C° 0 mm 5 mps 747 mmHg 57%
    12:00 +33°C° 0 mm 5 mps 746 mmHg 54%
    13:00 +33°C° 0.1 mm 5 mps 746 mmHg 56%
    14:00 +33°C° 0.1 mm 5 mps 745 mmHg 57%
    15:00 +33°C° 0.1 mm 5 mps 744 mmHg 59%
    16:00 +30°C° 0 mm 4 mps 744 mmHg 65%
    17:00 +29°C° 0 mm 4 mps 745 mmHg 70%
    18:00 +27°C° 0 mm 3 mps 745 mmHg 76%
    19:00 +27°C° 0 mm 3 mps 746 mmHg 78%
    20:00 +26°C° 0 mm 3 mps 746 mmHg 80%
    21:00 +26°C° 0 mm 3 mps 747 mmHg 82%
    22:00 +26°C° 0 mm 3 mps 747 mmHg 82%
    23:00 +25°C° 0 mm 3 mps 747 mmHg 82%

    Day after tomorrow, 16 December, Saturday

    Time Temperature Precipitation Wind Pressure Humidity
    00:00 +25°C° 0 mm 3 mps 747 mmHg 83%
    01:00 +25°C° 0 mm 3 mps 746 mmHg 83%
    02:00 +25°C° 0 mm 3 mps 746 mmHg 83%
    03:00 +25°C° 0 mm 3 mps 745 mmHg 83%
    04:00 +25°C° 0 mm 3 mps 746 mmHg 84%
    05:00 +25°C° 0 mm 3 mps 746 mmHg 84%
    06:00 +25°C° 0 mm 3 mps 746 mmHg 84%
    07:00 +26°C° 0 mm 4 mps 746 mmHg 78%
    08:00 +28°C° 0 mm 5 mps 747 mmHg 72%
    09:00 +30°C° 0 mm 6 mps 748 mmHg 66%
    10:00 +32°C° 0 mm 6 mps 747 mmHg 63%
    11:00 +32°C° 0 mm 7 mps 747 mmHg 60%
    12:00 +33°C° 0 mm 7 mps 746 mmHg 57%
    13:00 +33°C° 0 mm 7 mps 745 mmHg 57%
    14:00 +33°C° 0 mm 7 mps 745 mmHg 58%
    15:00 +33°C° 0 mm 7 mps 744 mmHg 58%
    16:00 +30°C° 0 mm 6 mps 744 mmHg 63%
    17:00 +29°C° 0 mm 5 mps 744 mmHg 69%
    18:00 +28°C° 0 mm 5 mps 745 mmHg 74%
    19:00 +27°C° 0 mm 5 mps 745 mmHg 76%
    20:00 +27°C° 0 mm 5 mps 746 mmHg 78%
    21:00 +26°C° 0 mm 5 mps 747 mmHg 80%
    22:00 +26°C° 0 mm 5 mps 746 mmHg 79%
    23:00 +26°C° 0 mm 5 mps 746 mmHg 78%

    17 December, Sunday

    Time Temperature Precipitation Wind Pressure Humidity
    00:00 +26°C° 0 mm 5 mps 746 mmHg 77%
    01:00 +25°C° 0 mm 5 mps 746 mmHg 78%
    02:00 +25°C° 0 mm 5 mps 745 mmHg 79%
    03:00 +25°C° 0 mm 5 mps 745 mmHg 80%
    04:00 +25°C° 0 mm 5 mps 745 mmHg 80%
    05:00 +25°C° 0 mm 5 mps 746 mmHg 81%
    06:00 +25°C° 0 mm 5 mps 746 mmHg 81%
    07:00 +27°C° 0 mm 5 mps 746 mmHg 77%
    08:00 +28°C° 0 mm 6 mps 747 mmHg 72%
    09:00 +29°C° 0 mm 7 mps 747 mmHg 68%
    10:00 +30°C° 0 mm 7 mps 747 mmHg 63%
    11:00 +32°C° 0 mm 7 mps 746 mmHg 59%
    12:00 +33°C° 0 mm 7 mps 745 mmHg 55%
    13:00 +33°C° 0.1 mm 7 mps 745 mmHg 57%
    14:00 +33°C° 0.1 mm 8 mps 744 mmHg 60%
    15:00 +32°C° 0.1 mm 8 mps 743 mmHg 62%
    16:00 +30°C° 0 mm 7 mps 744 mmHg 66%
    17:00 +29°C° 0 mm 6 mps 744 mmHg 70%
    18:00 +28°C° 0 mm 5 mps 744 mmHg 74%
    19:00 +28°C° 0 mm 5 mps 745 mmHg 76%
    20:00 +27°C° 0 mm 5 mps 745 mmHg 78%
    21:00 +27°C° 0 mm 6 mps 746 mmHg 80%
    22:00 +27°C° 0 mm 6 mps 746 mmHg 80%
    23:00 +27°C° 0 mm 6 mps 745 mmHg 80%

    18 December, Monday

    Time Temperature Precipitation Wind Pressure Humidity
    00:00 +27°C° 0 mm 6 mps 745 mmHg 79%
    01:00 +26°C° 0 mm 6 mps 745 mmHg 79%
    02:00 +26°C° 0 mm 6 mps 745 mmHg 78%
    03:00 +26°C° 0 mm 6 mps 744 mmHg 77%
    04:00 +26°C° 0 mm 5 mps 745 mmHg 78%
    05:00 +26°C° 0 mm 5 mps 745 mmHg 79%
    06:00 +26°C° 0 mm 5 mps 745 mmHg 79%
    07:00 +27°C° 0 mm 6 mps 746 mmHg 74%
    08:00 +29°C° 0 mm 7 mps 746 mmHg 70%
    09:00 +30°C° 0 mm 7 mps 747 mmHg 65%
    10:00 +32°C° 0 mm 7 mps 746 mmHg 62%
    11:00 +33°C° 0 mm 8 mps 746 mmHg 60%
    12:00 +33°C° 0 mm 8 mps 745 mmHg 58%
    13:00 +33°C° 0.1 mm 8 mps 745 mmHg 59%
    14:00 +33°C° 0.1 mm 8 mps 744 mmHg 60%
    15:00 +33°C° 0.1 mm 8 mps 744 mmHg 60%
    16:00 +30°C° 0.1 mm 7 mps 744 mmHg 65%
    17:00 +29°C° 0.1 mm 6 mps 745 mmHg 70%
    18:00 +28°C° 0.1 mm 5 mps 745 mmHg 75%
    19:00 +28°C° 0 mm 5 mps 745 mmHg 76%
    20:00 +27°C° 0 mm 5 mps 746 mmHg 77%
    21:00 +27°C° 0 mm 5 mps 746 mmHg 78%
    22:00 +27°C° 0 mm 5 mps 746 mmHg 78%
    23:00 +27°C° 0 mm 5 mps 746 mmHg 79%

    19 December, Tuesday

    Time Temperature Precipitation Wind Pressure Humidity
    00:00 +26°C° 0 mm 5 mps 746 mmHg 79%
    01:00 +26°C° 0 mm 5 mps 745 mmHg 80%
    02:00 +26°C° 0 mm 5 mps 745 mmHg 80%
    03:00 +26°C° 0 mm 4 mps 745 mmHg 81%
    04:00 +26°C° 0 mm 4 mps 745 mmHg 81%
    05:00 +26°C° 0 mm 4 mps 746 mmHg 82%
    06:00 +26°C° 0 mm 4 mps 746 mmHg 83%
    07:00 +27°C° 0 mm 5 mps 747 mmHg 77%
    08:00 +28°C° 0 mm 6 mps 747 mmHg 72%
    09:00 +30°C° 0 mm 6 mps 748 mmHg 67%
    10:00 +32°C° 0 mm 6 mps 747 mmHg 63%
    11:00 +33°C° 0 mm 6 mps 746 mmHg 60%
    12:00 +34°C° 0 mm 7 mps 746 mmHg 56%
    13:00 +34°C° 0 mm 7 mps 745 mmHg 56%
    14:00 +34°C° 0 mm 6 mps 744 mmHg 55%
    15:00 +34°C° 0 mm 6 mps 744 mmHg 55%
    16:00 +32°C° 0 mm 6 mps 744 mmHg 61%
    17:00 +30°C° 0 mm 5 mps 744 mmHg 66%
    18:00 +28°C° 0 mm 4 mps 745 mmHg 72%
    19:00 +28°C° 0 mm 4 mps 745 mmHg 75%
    20:00 +27°C° 0 mm 4 mps 746 mmHg 78%
    21:00 +27°C° 0 mm 4 mps 746 mmHg 82%
    22:00 +26°C° 0 mm 4 mps 746 mmHg 82%
    23:00 +26°C° 0 mm 4 mps 746 mmHg 82%
    Show more